KE0PRS Weather Reports


time (UTC)temp
C
wind
direction
speed
KPH
gust
KPH
rain 1hr
cm
rain 24hr
cm
rain mn
cm
humidity
%
barometer
mb
20260906200746 32 93 3.2 6.4 0.00 0.00 0.00 46 1014.7
20260906200241 32 96 4.8 4.8 0.00 0.00 0.00 47 1014.8
20260906195737 32 112 4.8 9.7 0.00 0.00 0.00 46 1014.9
20260906195233 32 120 0.0 3.2 0.00 0.00 0.00 47 1015.0
20260906194729 32 115 3.2 9.7 0.00 0.00 0.00 48 1015.1
20260906194224 32 112 1.6 12.9 0.00 0.00 0.00 48 1015.3
20260906193719 32 121 3.2 4.8 0.00 0.00 0.00 48 1015.0
20260906193214 32 107 1.6 9.7 0.00 0.00 0.00 47 1015.2
20260906192710 32 141 0.0 9.7 0.00 0.00 0.00 49 1015.3
20260906192209 32 119 1.6 9.7 0.00 0.00 0.00 50 1015.6
20260906191704 31 101 0.0 4.8 0.00 0.00 0.00 50 1015.6
20260906191203 31 132 1.6 9.7 0.00 0.00 0.00 49 1015.5
20260906190658 31 141 0.0 6.4 0.00 0.00 0.00 50 1015.9
20260906190153 31 181 0.0 11.3 0.00 0.00 0.00 49 1016.0
20260906185651 31 91 0.0 3.2 0.00 0.00 0.00 50 1016.1
20260906185151 31 163 1.6 9.7 0.00 0.00 0.00 50 1016.2
20260906184645 31 90 1.6 4.8 0.00 0.00 0.00 49 1016.3
20260906184142 31 147 0.0 11.3 0.00 0.00 0.00 48 1016.6
20260906183637 31 102 1.6 4.8 0.00 0.00 0.00 48 1016.5
20260906183133 31 129 1.6 4.8 0.00 0.00 0.00 49 1016.7
20260906182632 31 104 4.8 9.7 0.00 0.00 0.00 48 1016.9
20260906182129 31 94 1.6 9.7 0.00 0.00 0.00 48 1016.6
20260906181624 32 141 0.0 9.7 0.00 0.00 0.00 48 1016.9
20260906181120 32 97 3.2 12.9 0.00 0.00 0.00 48 1017.2
20260906180615 32 128 1.6 3.2 0.00 0.00 0.00 48 1017.2
20260906180114 32 133 0.0 3.2 0.00 0.00 0.00 49 1017.3
20260906175613 32 92 0.0 6.4 0.00 0.00 0.00 48 1017.5
20260906175108 32 132 3.2 6.4 0.00 0.00 0.00 45 1017.6
20260906174606 31 76 4.8 9.7 0.00 0.00 0.00 49 1017.9
20260906174101 31 36 6.4 12.9 0.00 0.00 0.00 49 1017.9
20260906173556 31 124 1.6 12.9 0.00 0.00 0.00 50 1018.0
20260906173053 32 120 1.6 12.9 0.00 0.00 0.00 51 1017.9
20260906172552 31 161 1.6 4.8 0.00 0.00 0.00 51 1018.2
20260906172048 31 149 0.0 3.2 0.00 0.00 0.00 53 1018.0
20260906171547 31 171 0.0 9.7 0.00 0.00 0.00 53 1018.2
20260906171043 31 176 1.6 6.4 0.00 0.00 0.00 52 1018.1
20260906170539 30 136 1.6 4.8 0.00 0.00 0.00 54 1018.3
20260906170038 30 154 0.0 9.7 0.00 0.00 0.00 56 1018.2
20260906165534 30 67 6.4 11.3 0.00 0.00 0.00 56 1018.4
20260906165029 30 172 1.6 11.3 0.00 0.00 0.00 57 1018.5
20260906164529 29 140 3.2 6.4 0.00 0.00 0.00 58 1018.5
20260906164025 29 34 1.6 12.9 0.00 0.00 0.00 59 1018.5
20260906163520 28 22 4.8 12.9 0.00 0.00 0.00 61 1018.4
20260906163015 28 60 11.3 14.5 0.00 0.00 0.00 61 1018.7
20260906162513 28 141 6.4 16.1 0.00 0.00 0.00 61 1018.7
20260906162008 28 107 3.2 16.1 0.00 0.00 0.00 63 1018.9
20260906161503 28 84 6.4 9.7 0.00 0.00 0.00 62 1018.9
20260906161001 28 174 1.6 9.7 0.00 0.00 0.00 62 1019.0
20260906160500 28 349 1.6 6.4 0.00 0.00 0.00 61 1019.0
20260906155958 28 123 3.2 4.8 0.00 0.00 0.00 62 1018.7
20260906155457 27 358 3.2 14.5 0.00 0.00 0.00 65 1018.7
20260906154953 27 317 6.4 11.3 0.00 0.00 0.00 65 1018.7
20260906154449 27 88 8.0 11.3 0.00 0.00 0.00 64 1018.6
20260906153946 28 269 9.7 16.1 0.00 0.00 0.00 62 1018.5
20260906153446 27 126 0.0 11.3 0.00 0.00 0.00 64 1018.6
20260906152941 27 48 6.4 17.7 0.00 0.00 0.00 63 1018.6
20260906152441 27 6 9.7 17.7 0.00 0.00 0.00 63 1018.6
20260906151940 27 43 4.8 16.1 0.00 0.00 0.00 64 1018.5
20260906151436 27 55 9.7 17.7 0.00 0.00 0.00 65 1018.5
20260906150932 27 12 11.3 17.7 0.00 0.00 0.00 64 1018.5
20260906150426 26 21 1.6 11.3 0.00 0.00 0.00 65 1018.4
20260906145921 26 96 6.4 17.7 0.00 0.00 0.00 66 1018.2
20260906145420 26 17 6.4 12.9 0.00 0.00 0.00 67 1018.3
20260906144915 26 111 4.8 11.3 0.00 0.00 0.00 67 1018.2
20260906144415 26 0 6.4 12.9 0.00 0.00 0.00 67 1018.4
20260906143910 25 106 3.2 9.7 0.00 0.00 0.00 68 1018.4
20260906143406 25 101 1.6 6.4 0.00 0.00 0.00 70 1018.5
20260906142902 25 156 1.6 11.3 0.00 0.00 0.00 71 1018.6
20260906142401 25 0 6.4 9.7 0.00 0.00 0.00 71 1018.4
20260906141856 24 22 6.4 9.7 0.00 0.00 0.00 72 1018.5
20260906141356 24 162 1.6 6.4 0.00 0.00 0.00 72 1018.5
20260906140856 24 184 0.0 9.7 0.00 0.00 0.00 72 1018.5
20260906140351 23 20 3.2 9.7 0.00 0.00 0.00 73 1018.4
20260906135849 23 131 3.2 9.7 0.00 0.00 0.00 72 1018.5
20260906135349 23 141 1.6 22.5 0.00 0.00 0.00 73 1018.5
20260906134844 24 285 8.0 17.7 0.00 0.00 0.00 71 1018.3
20260906134339 24 194 1.6 1.6 0.00 0.00 0.00 70 1018.0
20260906133834 24 166 0.0 0.0 0.00 0.00 0.00 68 1017.7
20260906133330 23 166 0.0 1.6 0.00 0.00 0.00 70 1017.5
20260906132825 23 167 1.6 3.2 0.00 0.00 0.00 70 1017.3
20260906132321 23 175 0.0 0.0 0.00 0.00 0.00 70 1017.4
20260906131816 24 184 0.0 0.0 0.00 0.00 0.00 69 1017.4
20260906131311 23 181 1.6 3.2 0.00 0.00 0.00 68 1017.0
20260906130808 23 166 1.6 4.8 0.00 0.00 0.00 69 1017.0
20260906130306 23 160 3.2 3.2 0.00 0.00 0.00 70 1017.0
20260906125805 23 169 0.0 1.6 0.00 0.00 0.00 70 1016.8
20260906125306 23 155 0.0 4.8 0.00 0.00 0.00 71 1016.6
20260906124758 23 162 1.6 1.6 0.00 0.00 0.00 71 1016.7
20260906124254 23 152 0.0 3.2 0.00 0.00 0.00 71 1016.7
20260906123753 23 165 0.0 1.6 0.00 0.00 0.00 71 1016.6
20260906123248 23 165 0.0 0.0 0.00 0.00 0.00 72 1016.3
20260906122747 23 150 0.0 3.2 0.00 0.00 0.00 71 1016.3
20260906122243 23 174 1.6 4.8 0.00 0.00 0.00 71 1016.2
20260906121739 23 179 4.8 6.4 0.00 0.00 0.00 71 1016.1
20260906121235 23 157 0.0 3.2 0.00 0.00 0.00 72 1016.1
20260906120731 23 169 1.6 3.2 0.00 0.00 0.00 71 1016.1
20260906120228 23 186 3.2 6.4 0.00 0.00 0.00 71 1015.9
20260906115723 23 165 1.6 4.8 0.00 0.00 0.00 70 1015.8
20260906115218 23 155 4.8 9.7 0.00 0.00 0.00 70 1015.7
20260906114717 23 174 11.3 14.5 0.00 0.00 0.00 70 1015.6
20260906114212 23 162 6.4 9.7 0.00 0.00 0.00 71 1015.6
20260906113707 23 166 3.2 4.8 0.00 0.00 0.00 71 1015.5
20260906113207 23 244 3.2 6.4 0.00 0.00 0.00 71 1015.3
20260906112706 23 154 4.8 6.4 0.00 0.00 0.00 71 1015.3
20260906112204 23 184 6.4 11.3 0.00 0.00 0.00 70 1015.3
20260906111703 23 173 6.4 11.3 0.00 0.00 0.00 70 1015.1
20260906111157 23 172 4.8 12.9 0.00 0.00 0.00 69 1015.5
20260906110653 24 166 6.4 11.3 0.00 0.00 0.00 68 1015.3
20260906110148 24 159 11.3 16.1 0.00 0.00 0.00 67 1015.2
20260906105647 24 132 4.8 12.9 0.00 0.00 0.00 67 1015.2
20260906105144 23 161 4.8 9.7 0.00 0.00 0.00 68 1015.1
20260906104643 23 163 6.4 11.3 0.00 0.00 0.00 68 1014.9
20260906104143 23 176 6.4 11.3 0.00 0.00 0.00 68 1015.2
20260906103641 23 205 6.4 6.4 0.00 0.00 0.00 68 1015.1
20260906103136 23 152 6.4 9.7 0.00 0.00 0.00 69 1015.2
20260906102631 23 137 6.4 11.3 0.00 0.00 0.00 69 1014.9
20260906102126 23 169 6.4 6.4 0.00 0.00 0.00 70 1015.3
20260906101625 23 185 4.8 6.4 0.00 0.00 0.00 70 1015.5
20260906101125 23 160 3.2 4.8 0.00 0.00 0.00 69 1015.5
20260906100621 24 168 0.0 1.6 0.00 0.00 0.00 68 1015.1
20260906100116 23 155 1.6 4.8 0.00 0.00 0.00 67 1015.3
20260906095616 23 162 6.4 11.3 0.00 0.00 0.00 69 1015.3
20260906095111 23 164 6.4 9.7 0.00 0.00 0.00 69 1015.3
20260906094610 23 197 4.8 6.4 0.00 0.00 0.00 68 1015.5
20260906094106 23 177 6.4 12.9 0.00 0.00 0.00 67 1015.5
20260906093602 23 168 8.0 11.3 0.00 0.00 0.00 68 1015.1
20260906093057 23 165 6.4 9.7 0.00 0.00 0.00 69 1015.2
20260906092552 23 164 0.0 3.2 0.00 0.00 0.00 68 1015.2
20260906092047 23 146 3.2 6.4 0.00 0.00 0.00 68 1015.2
20260906091543 23 161 1.6 3.2 0.00 0.00 0.00 68 1015.2
20260906091039 23 174 3.2 9.7 0.00 0.00 0.00 68 1015.0
20260906090539 24 150 0.0 4.8 0.00 0.00 0.00 68 1015.0
20260906090040 24 144 3.2 6.4 0.00 0.00 0.00 68 1015.1
20260906085538 24 172 4.8 4.8 0.00 0.00 0.00 68 1015.1
20260906085038 24 209 3.2 6.4 0.00 0.00 0.00 68 1015.2
20260906084533 24 160 3.2 9.7 0.00 0.00 0.00 68 1015.1
20260906084031 24 154 1.6 4.8 0.00 0.00 0.00 68 1015.2
20260906083528 24 177 3.2 3.2 0.00 0.00 0.00 67 1015.1
20260906083027 25 150 4.8 9.7 0.00 0.00 0.00 66 1015.0
20260906082522 25 147 3.2 14.5 0.00 0.00 0.00 66 1015.1
20260906082018 25 141 6.4 9.7 0.00 0.00 0.00 65 1014.9
20260906081514 25 131 3.2 9.7 0.00 0.00 0.00 65 1014.9
20260906081009 25 158 6.4 11.3 0.00 0.00 0.00 65 1014.9
20260906080506 25 150 4.8 11.3 0.00 0.00 0.00 65 1014.8
20260906080001 25 133 4.8 6.4 0.00 0.00 0.00 65 1015.0
20260906075455 25 177 3.2 12.9 0.00 0.00 0.00 64 1015.0
20260906074951 26 165 1.6 11.3 0.00 0.00 0.00 63 1015.0
20260906074451 26 162 3.2 11.3 0.00 0.00 0.00 62 1014.9
20260906073949 26 161 11.3 14.5 0.00 0.00 0.00 61 1015.1
20260906073444 26 139 14.5 24.1 0.00 0.00 0.00 61 1014.9
20260906072941 26 147 6.4 16.1 0.00 0.00 0.00 61 1015.0
20260906072435 26 166 3.2 16.1 0.00 0.00 0.00 61 1015.0
20260906071931 26 168 4.8 17.7 0.00 0.00 0.00 62 1014.9
20260906071427 26 139 11.3 16.1 0.00 0.00 0.00 62 1015.2
20260906070923 26 125 6.4 12.9 0.00 0.00 0.00 63 1015.1
20260906070419 25 177 8.0 14.5 0.00 0.00 0.00 64 1015.1
20260906065915 25 174 4.8 11.3 0.00 0.00 0.00 66 1015.1
20260906065408 25 138 6.4 9.7 0.00 0.00 0.00 66 1015.1
20260906064904 25 130 9.7 12.9 0.00 0.00 0.00 67 1015.2
20260906064401 25 116 6.4 9.7 0.00 0.00 0.00 68 1014.9
20260906063900 25 129 11.3 16.1 0.00 0.00 0.00 69 1015.0
20260906063355 25 145 3.2 9.7 0.00 0.00 0.00 69 1014.9
20260906062850 25 138 4.8 14.5 0.00 0.00 0.00 69 1014.9
20260906062350 25 116 3.2 6.4 0.00 0.00 0.00 70 1015.0
20260906061845 25 141 3.2 9.7 0.00 0.00 0.00 70 1015.0
20260906061342 25 135 3.2 9.7 0.00 0.00 0.00 69 1014.8
20260906060836 26 144 4.8 6.4 0.00 0.00 0.00 67 1014.6
20260906060334 26 128 6.4 9.7 0.00 0.00 0.00 64 1014.7
20260906055830 26 177 6.4 11.3 0.00 0.00 0.00 63 1014.5
20260906055325 26 157 6.4 9.7 0.00 0.00 0.00 64 1014.5
20260906054820 26 164 6.4 11.3 0.00 0.00 0.00 64 1014.4
20260906054315 26 138 3.2 6.4 0.00 0.00 0.00 64 1014.5
20260906053812 26 145 3.2 4.8 0.00 0.00 0.00 65 1014.8
20260906053307 26 136 3.2 4.8 0.00 0.00 0.00 66 1014.6
20260906052802 25 128 3.2 9.7 0.00 0.00 0.00 67 1014.6
20260906052258 25 118 3.2 6.4 0.00 0.00 0.00 68 1014.8
20260906051755 25 169 3.2 4.8 0.00 0.00 0.00 69 1014.8
20260906051254 25 167 6.4 9.7 0.00 0.00 0.00 69 1014.7
20260906050750 25 147 3.2 4.8 0.00 0.00 0.00 69 1014.8
20260906050245 25 144 1.6 11.3 0.00 0.00 0.00 69 1014.9
20260906045744 25 141 6.4 9.7 0.00 0.03 0.03 71 1014.9
20260906045239 25 150 1.6 3.2 0.00 0.03 0.03 71 1014.8
20260906044735 26 149 0.0 1.6 0.00 0.03 0.03 70 1014.8
20260906044229 26 152 0.0 1.6 0.00 0.03 0.03 68 1014.7
20260906043726 26 166 3.2 4.8 0.00 0.03 0.03 68 1014.8
20260906043221 26 147 3.2 9.7 0.00 0.03 0.03 68 1014.9
20260906042721 26 104 4.8 11.3 0.00 0.03 0.03 68 1015.0
20260906042220 26 130 3.2 6.4 0.00 0.03 0.03 68 1014.9
20260906041715 26 142 3.2 4.8 0.00 0.03 0.03 68 1014.9
20260906041211 26 159 1.6 4.8 0.00 0.03 0.03 68 1015.1
20260906040706 26 143 3.2 6.4 0.00 0.03 0.03 68 1014.9
20260906040201 26 182 6.4 11.3 0.00 0.03 0.03 67 1014.9
20260906035657 26 145 3.2 6.4 0.00 0.03 0.03 66 1014.9
20260906035153 26 172 3.2 9.7 0.00 0.03 0.03 67 1014.9
20260906034647 26 184 6.4 11.3 0.00 0.03 0.03 68 1015.0
20260906034141 26 162 9.7 12.9 0.00 0.03 0.03 69 1015.0
20260906033637 25 129 4.8 14.5 0.00 0.03 0.03 70 1014.8
20260906033132 25 147 3.2 6.4 0.00 0.03 0.03 71 1014.7
20260906032629 25 151 3.2 9.7 0.00 0.03 0.03 72 1014.6
20260906032129 25 133 3.2 12.9 0.00 0.03 0.03 72 1014.7
20260906031624 25 132 3.2 11.3 0.00 0.03 0.03 72 1014.7
20260906031120 25 152 4.8 6.4 0.00 0.03 0.03 72 1014.6
20260906030619 25 155 3.2 6.4 0.00 0.03 0.03 72 1014.5
20260906030114 25 166 4.8 6.4 0.00 0.03 0.03 72 1014.7
20260906025613 25 142 3.2 6.4 0.00 0.03 0.03 72 1014.5
20260906025112 25 162 3.2 4.8 0.00 0.03 0.03 73 1014.5
20260906024607 25 153 3.2 4.8 0.00 0.03 0.03 73 1014.4
20260906024102 25 155 6.4 6.4 0.00 0.03 0.03 73 1014.5
20260906023558 25 173 3.2 6.4 0.00 0.03 0.03 73 1014.4
20260906023057 25 156 3.2 4.8 0.00 0.03 0.03 74 1014.4
20260906022553 25 172 0.0 1.6 0.00 0.03 0.03 75 1014.4
20260906022048 25 172 1.6 3.2 0.00 0.03 0.03 74 1014.2
20260906021544 25 163 4.8 4.8 0.00 0.03 0.03 75 1014.3
20260906021042 25 148 1.6 4.8 0.00 0.03 0.03 76 1014.2
20260906020543 26 188 1.6 3.2 0.00 0.03 0.03 75 1014.1
20260906020042 26 209 3.2 3.2 0.00 0.03 0.03 73 1014.1
20260906015541 26 155 1.6 3.2 0.00 0.03 0.03 72 1014.1
20260906015035 26 146 3.2 6.4 0.00 0.03 0.03 71 1013.9
20260906014530 26 145 4.8 6.4 0.00 0.03 0.03 72 1013.7
20260906014026 26 141 6.4 11.3 0.00 0.03 0.03 72 1013.9
20260906013521 26 143 1.6 4.8 0.00 0.03 0.03 72 1013.6
20260906013017 26 165 6.4 6.4 0.00 0.03 0.03 72 1013.7
20260906012512 26 160 4.8 6.4 0.00 0.03 0.03 71 1013.7
20260906012011 26 164 4.8 4.8 0.00 0.03 0.03 70 1013.7
20260906011508 27 161 1.6 4.8 0.00 0.03 0.03 69 1013.5
20260906011008 27 158 1.6 3.2 0.00 0.03 0.03 68 1013.5
20260906010503 27 187 3.2 4.8 0.00 0.03 0.03 67 1013.5
20260906005959 27 180 8.0 11.3 0.00 0.03 0.03 66 1013.5
20260906005458 27 138 4.8 4.8 0.00 0.03 0.03 65 1013.7
20260906004957 27 159 0.0 1.6 0.00 0.03 0.03 66 1013.6
20260906004457 27 167 0.0 3.2 0.00 0.03 0.03 70 1013.7
20260906003952 27 177 1.6 1.6 0.00 0.03 0.03 71 1013.7
20260906003447 27 193 1.6 3.2 0.00 0.03 0.03 69 1013.6
20260906002942 27 169 1.6 3.2 0.00 0.03 0.03 68 1013.4
20260906002443 27 180 3.2 3.2 0.00 0.03 0.03 66 1013.5
20260906001937 27 188 3.2 6.4 0.00 0.03 0.03 66 1013.5
20260906001433 26 175 1.6 1.6 0.00 0.03 0.03 71 1013.3
20260906000923 26 161 0.0 0.0 0.00 0.03 0.03 70 1013.3
20260906000418 26 153 0.0 0.0 0.00 0.03 0.03 72 1013.3
20260905235913 26 158 0.0 0.0 0.00 0.03 0.03 71 1013.4
20260905235407 25 169 3.2 4.8 0.00 0.03 0.03 72 1013.4
20260905234903 25 172 3.2 4.8 0.00 0.03 0.03 74 1013.3
20260905234357 25 156 0.0 0.0 0.00 0.03 0.03 77 1013.5
20260905233852 25 189 0.0 0.0 0.00 0.03 0.03 77 1013.5
20260905233347 25 186 1.6 3.2 0.00 0.03 0.03 77 1013.5
20260905232846 25 239 3.2 3.2 0.00 0.03 0.03 73 1013.5
20260905232343 25 182 3.2 3.2 0.00 0.03 0.03 73 1013.7
20260905231838 25 197 3.2 3.2 0.00 0.03 0.03 73 1014.1
20260905231338 25 176 0.0 0.0 0.00 0.03 0.03 74 1014.1
20260905230835 25 205 1.6 3.2 0.00 0.03 0.03 71 1014.4
20260905230333 25 172 0.0 0.0 0.00 0.03 0.03 72 1014.6
20260905225832 26 175 1.6 4.8 0.00 0.03 0.03 71 1015.2
20260905225327 26 229 3.2 3.2 0.00 0.03 0.03 70 1015.2
20260905224827 26 216 3.2 4.8 0.00 0.03 0.03 68 1015.3
20260905224323 25 195 4.8 12.9 0.00 0.03 0.03 70 1015.6
20260905223818 26 192 6.4 11.3 0.00 0.03 0.03 75 1015.1
20260905223316 26 129 0.0 4.8 0.00 0.03 0.03 73 1014.5
20260905222811 26 96 1.6 9.7 0.00 0.03 0.03 70 1014.2
20260905222309 26 21 3.2 6.4 0.00 0.03 0.03 70 1014.1
20260905221806 27 283 4.8 6.4 0.00 0.03 0.03 65 1014.3
20260905221302 28 327 9.7 20.9 0.00 0.03 0.03 61 1014.6
20260905220758 27 1 6.4 20.9 0.00 0.03 0.03 59 1014.2
20260905220254 27 335 11.3 20.9 0.00 0.03 0.03 63 1014.4
20260905215753 27 320 8.0 12.9 0.00 0.03 0.03 64 1014.5
20260905215249 28 169 3.2 4.8 0.00 0.03 0.03 63 1014.0
20260905214744 29 221 6.4 11.3 0.00 0.03 0.03 61 1013.9
20260905214240 29 230 3.2 4.8 0.00 0.03 0.03 63 1013.5
20260905213735 28 161 0.0 0.0 0.00 0.03 0.03 63 1013.2
20260905213231 28 165 0.0 0.0 0.00 0.03 0.03 64 1013.2
20260905212726 28 157 0.0 0.0 0.00 0.03 0.03 64 1013.0
20260905212226 28 157 0.0 1.6 0.00 0.03 0.03 69 1013.0
20260905211725 28 155 1.6 3.2 0.00 0.03 0.03 66 1013.1
20260905211221 29 261 1.6 3.2 0.00 0.03 0.03 63 1013.1
20260905210718 28 246 4.8 4.8 0.18 0.03 0.03 64 1013.1
20260905210217 29 238 3.2 4.8 0.18 0.03 0.03 61 1013.2
20260905205716 30 325 3.2 6.4 0.00 0.00 0.00 60 1013.3
20260905205210 32 179 3.2 14.5 0.00 0.00 0.00 56 1013.1
20260905204711 33 161 6.4 14.5 0.00 0.00 0.00 46 1013.4
20260905204206 35 200 6.4 16.1 0.00 0.00 0.00 39 1013.4
20260905203706 36 161 9.7 16.1 0.00 0.00 0.00 36 1013.3
20260905203201 36 140 9.7 14.5 0.00 0.00 0.00 36 1013.1
20260905202657 36 173 6.4 12.9 0.00 0.00 0.00 36 1013.2
20260905202152 36 189 14.5 17.7 0.00 0.00 0.00 35 1013.1
20260905201648 36 151 11.3 14.5 0.00 0.00 0.00 35 1013.3